Volver al catálogo

STARLINK-34758

ActivoComunicacionesSSO
NORAD 64945·PAYLOAD·🇺🇸 United States

Lanzado Jul 26, 2025 desde Vandenberg Space Force Base

Loading…

Próximos Pases (próximas 24 horas)

TLE

ActualizadoSource: CelesTrak SupGP

Época: Sep 15, 2026, 03:06 UTC

1 64945C 25158P   26258.12965278 -.00039124  00000+0 -12142-2 0  2582
2 64945  97.2839 116.5475 0001712  97.6066 326.5817 15.33466967    15

Sigue STARLINK-34758 en tiempo real con AllMySat

Download on the App Store